User: anonymous   Login
Location: Caltech
(34.1382°N, 118.1253°W)
Time: 18:30:18
(UTC-07:00)
Language:

SO-67 - Orbit

View from above orbital plane
View from above orbital plane
View from above satellite
View from above satellite

Ground track
Ground track

The orbit data is extracted from the following two-line orbital elements,

1 35870U 09049F   16274.40480953  .00010116  00000-0  18102-3 0  9992
2 35870  97.1163 287.8927 0001579  60.9496  46.3948 15.50173291392935
Epoch (UTC): 30 September 2016 09:42:55
Eccentricity: 0.0001579
inclination: 97.1163°
perigee height: 415 km
apogee height: 417 km
right ascension of ascending node: 287.8927°
argument of perigee: 60.9496°
revolutions per day: 15.50173291
mean anomaly at epoch: 46.3948°
orbit number at epoch: 39293

The dashed part of the orbit path shows where the satellite is in the earth's shadow,  

DLR